| time (UTC) | temp F | wind direction | speed knots | gust knots | rain 1hr in | rain 24hr in | rain mn in | humidity % | barometer mb |
| 20260906122852 | 75 | 345 | 0.0 | 0.0 | 0.00 | 0.00 | 0.00 | 95 | 1013.8 |
| 20260906122347 | 75 | 342 | 0.0 | 0.0 | 0.00 | 0.00 | 0.00 | 95 | 1013.7 |
| 20260906121844 | 75 | 347 | 0.0 | 0.0 | 0.00 | 0.00 | 0.00 | 96 | 1013.7 |
| 20260906121340 | 75 | 347 | 0.0 | 0.0 | 0.00 | 0.00 | 0.00 | 96 | 1013.6 |
| 20260906120836 | 75 | 347 | 0.0 | 0.0 | 0.00 | 0.00 | 0.00 | 96 | 1013.6 |
| 20260906120331 | 74 | 347 | 0.0 | 0.0 | 0.00 | 0.00 | 0.00 | 96 | 1013.5 |
| 20260906115828 | 74 | 347 | 0.0 | 0.0 | 0.00 | 0.00 | 0.00 | 96 | 1013.5 |
| 20260906115323 | 74 | 347 | 0.9 | 0.9 | 0.00 | 0.00 | 0.00 | 96 | 1013.2 |
| 20260906114822 | 74 | 346 | 0.0 | 0.0 | 0.00 | 0.00 | 0.00 | 96 | 1013.1 |
| 20260906114317 | 74 | 346 | 0.0 | 0.0 | 0.00 | 0.00 | 0.00 | 96 | 1013.4 |
| 20260906113812 | 74 | 346 | 0.0 | 0.0 | 0.00 | 0.00 | 0.00 | 96 | 1013.1 |
| 20260906113312 | 74 | 345 | 0.0 | 0.0 | 0.00 | 0.00 | 0.00 | 96 | 1013.3 |
| 20260906112807 | 74 | 345 | 0.0 | 0.0 | 0.00 | 0.00 | 0.00 | 96 | 1013.1 |
| 20260906112306 | 74 | 344 | 0.0 | 0.0 | 0.00 | 0.00 | 0.00 | 95 | 1013.1 |
| 20260906111803 | 74 | 345 | 0.0 | 0.0 | 0.00 | 0.00 | 0.00 | 95 | 1012.8 |
| 20260906111302 | 74 | 351 | 0.0 | 0.0 | 0.00 | 0.00 | 0.00 | 95 | 1012.7 |
| 20260906110757 | 74 | 351 | 0.0 | 0.0 | 0.00 | 0.00 | 0.00 | 95 | 1012.6 |
| 20260906110253 | 74 | 353 | 0.0 | 0.9 | 0.00 | 0.00 | 0.00 | 95 | 1012.8 |
| 20260906105751 | 74 | 326 | 0.0 | 0.9 | 0.00 | 0.00 | 0.00 | 95 | 1012.8 |
| 20260906105242 | 74 | 334 | 0.0 | 0.0 | 0.00 | 0.00 | 0.00 | 94 | 1012.6 |
| 20260906104737 | 74 | 334 | 0.0 | 0.0 | 0.00 | 0.00 | 0.00 | 94 | 1012.5 |
| 20260906104236 | 75 | 331 | 0.0 | 0.9 | 0.00 | 0.00 | 0.00 | 93 | 1012.4 |
| 20260906103734 | 75 | 345 | 0.0 | 0.0 | 0.00 | 0.00 | 0.00 | 93 | 1012.5 |
| 20260906103228 | 75 | 333 | 0.0 | 0.9 | 0.00 | 0.00 | 0.00 | 93 | 1012.7 |
| 20260906102724 | 75 | 345 | 0.0 | 0.0 | 0.00 | 0.00 | 0.00 | 92 | 1012.5 |
| 20260906102223 | 75 | 310 | 0.9 | 0.9 | 0.00 | 0.00 | 0.00 | 92 | 1012.5 |
| 20260906101718 | 75 | 321 | 0.9 | 0.9 | 0.00 | 0.00 | 0.00 | 92 | 1012.5 |
| 20260906101213 | 75 | 7 | 0.9 | 0.9 | 0.00 | 0.00 | 0.00 | 92 | 1012.5 |
| 20260906100709 | 75 | 345 | 0.0 | 0.0 | 0.00 | 0.00 | 0.00 | 92 | 1012.7 |
| 20260906100209 | 75 | 346 | 0.0 | 0.0 | 0.00 | 0.00 | 0.00 | 91 | 1012.4 |
| 20260906095704 | 75 | 344 | 0.0 | 0.0 | 0.00 | 0.00 | 0.00 | 90 | 1012.4 |
| 20260906095159 | 76 | 345 | 0.0 | 0.9 | 0.00 | 0.00 | 0.00 | 89 | 1012.3 |
| 20260906094657 | 76 | 351 | 0.0 | 0.0 | 0.00 | 0.00 | 0.00 | 89 | 1012.5 |
| 20260906094153 | 76 | 333 | 0.0 | 0.9 | 0.00 | 0.00 | 0.00 | 89 | 1012.4 |
| 20260906093649 | 76 | 340 | 0.0 | 0.9 | 0.00 | 0.00 | 0.00 | 89 | 1012.4 |
| 20260906093144 | 76 | 329 | 0.0 | 0.9 | 0.00 | 0.00 | 0.00 | 89 | 1012.5 |
| 20260906092639 | 76 | 313 | 0.9 | 1.7 | 0.00 | 0.00 | 0.00 | 89 | 1012.6 |
| 20260906092139 | 76 | 359 | 0.0 | 0.9 | 0.00 | 0.00 | 0.00 | 89 | 1012.2 |
| 20260906091635 | 76 | 2 | 0.0 | 0.9 | 0.00 | 0.00 | 0.00 | 89 | 1012.4 |
| 20260906091132 | 76 | 321 | 0.0 | 0.9 | 0.00 | 0.00 | 0.00 | 89 | 1012.4 |
| 20260906090627 | 75 | 288 | 0.9 | 2.6 | 0.00 | 0.00 | 0.00 | 89 | 1012.4 |
| 20260906090126 | 75 | 345 | 0.9 | 0.9 | 0.00 | 0.00 | 0.00 | 91 | 1012.4 |
| 20260906085626 | 76 | 343 | 0.0 | 0.0 | 0.00 | 0.00 | 0.00 | 90 | 1012.5 |
| 20260906085120 | 76 | 341 | 0.9 | 0.9 | 0.00 | 0.00 | 0.00 | 89 | 1012.5 |
| 20260906084615 | 76 | 329 | 0.0 | 0.9 | 0.00 | 0.00 | 0.00 | 89 | 1012.5 |
| 20260906084114 | 76 | 330 | 0.0 | 0.0 | 0.00 | 0.00 | 0.00 | 89 | 1012.2 |
| 20260906083610 | 76 | 322 | 0.0 | 0.9 | 0.00 | 0.00 | 0.00 | 88 | 1012.3 |
| 20260906083109 | 76 | 337 | 0.0 | 0.0 | 0.00 | 0.00 | 0.00 | 88 | 1012.5 |
| 20260906082605 | 76 | 335 | 0.0 | 0.9 | 0.00 | 0.00 | 0.00 | 88 | 1012.2 |
| 20260906082101 | 76 | 331 | 0.0 | 0.0 | 0.00 | 0.00 | 0.00 | 88 | 1012.5 |
| 20260906081556 | 76 | 335 | 0.0 | 0.0 | 0.00 | 0.00 | 0.00 | 87 | 1012.2 |
| 20260906081051 | 76 | 325 | 0.0 | 0.0 | 0.00 | 0.00 | 0.00 | 86 | 1012.2 |
| 20260906080548 | 77 | 323 | 0.0 | 0.9 | 0.00 | 0.00 | 0.00 | 86 | 1012.3 |
| 20260906080043 | 77 | 338 | 0.0 | 0.9 | 0.00 | 0.00 | 0.00 | 85 | 1012.2 |
| 20260906075537 | 77 | 334 | 0.0 | 0.9 | 0.00 | 0.00 | 0.00 | 85 | 1012.0 |
| 20260906075032 | 77 | 174 | 1.7 | 1.7 | 0.00 | 0.00 | 0.00 | 85 | 1012.3 |
| 20260906074527 | 77 | 226 | 2.6 | 2.6 | 0.00 | 0.00 | 0.00 | 84 | 1012.3 |
| 20260906074025 | 77 | 286 | 2.6 | 5.2 | 0.00 | 0.00 | 0.00 | 84 | 1012.3 |
| 20260906073521 | 77 | 316 | 0.9 | 0.9 | 0.00 | 0.00 | 0.00 | 83 | 1012.1 |
| 20260906073017 | 77 | 279 | 0.9 | 0.9 | 0.00 | 0.00 | 0.00 | 83 | 1012.3 |
| 20260906072511 | 78 | 310 | 0.9 | 1.7 | 0.00 | 0.00 | 0.00 | 83 | 1012.3 |
| 20260906072008 | 78 | 318 | 0.9 | 0.9 | 0.00 | 0.00 | 0.00 | 82 | 1012.1 |
| 20260906071504 | 78 | 307 | 0.9 | 1.7 | 0.00 | 0.00 | 0.00 | 82 | 1012.4 |
| 20260906070959 | 78 | 311 | 0.9 | 1.7 | 0.00 | 0.00 | 0.00 | 82 | 1012.5 |
| 20260906070455 | 78 | 311 | 0.9 | 1.7 | 0.00 | 0.00 | 0.00 | 81 | 1012.5 |
| 20260906065950 | 78 | 296 | 1.7 | 1.7 | 0.00 | 0.00 | 0.00 | 81 | 1012.6 |
| 20260906065449 | 78 | 323 | 0.0 | 0.9 | 0.00 | 0.00 | 0.00 | 81 | 1012.4 |
| 20260906064945 | 79 | 322 | 0.0 | 0.9 | 0.00 | 0.00 | 0.00 | 81 | 1012.5 |
| 20260906064441 | 79 | 308 | 0.9 | 1.7 | 0.00 | 0.00 | 0.00 | 80 | 1012.5 |
| 20260906063936 | 79 | 217 | 1.7 | 2.6 | 0.00 | 0.00 | 0.00 | 80 | 1012.4 |
| 20260906063432 | 79 | 325 | 0.0 | 1.7 | 0.00 | 0.00 | 0.00 | 80 | 1012.4 |
| 20260906062926 | 80 | 189 | 1.7 | 1.7 | 0.00 | 0.00 | 0.00 | 79 | 1012.6 |
| 20260906062421 | 80 | 268 | 2.6 | 2.6 | 0.00 | 0.00 | 0.00 | 79 | 1012.6 |
| 20260906061916 | 80 | 321 | 1.7 | 2.6 | 0.00 | 0.00 | 0.00 | 79 | 1012.6 |
| 20260906061412 | 80 | 274 | 0.9 | 1.7 | 0.00 | 0.00 | 0.00 | 80 | 1012.7 |
| 20260906060906 | 80 | 252 | 1.7 | 2.6 | 0.00 | 0.00 | 0.00 | 81 | 1012.7 |
| 20260906060404 | 80 | 210 | 2.6 | 2.6 | 0.00 | 0.00 | 0.00 | 83 | 1012.9 |
| 20260906055900 | 80 | 113 | 1.7 | 2.6 | 0.00 | 0.00 | 0.00 | 84 | 1013.2 |
| 20260906055355 | 80 | 92 | 1.7 | 2.6 | 0.00 | 0.00 | 0.00 | 84 | 1013.4 |
| 20260906054850 | 80 | 169 | 1.7 | 1.7 | 0.00 | 0.00 | 0.00 | 84 | 1013.5 |
| 20260906054345 | 80 | 152 | 1.7 | 4.3 | 0.00 | 0.00 | 0.00 | 84 | 1013.6 |
| 20260906053841 | 80 | 223 | 1.7 | 4.3 | 0.00 | 0.00 | 0.00 | 84 | 1013.5 |
| 20260906053337 | 80 | 9 | 0.0 | 1.7 | 0.00 | 0.00 | 0.00 | 85 | 1013.3 |
| 20260906052832 | 80 | 337 | 0.9 | 1.7 | 0.00 | 0.00 | 0.00 | 85 | 1013.4 |
| 20260906052329 | 80 | 250 | 4.3 | 5.2 | 0.00 | 0.00 | 0.00 | 84 | 1013.4 |
| 20260906051825 | 80 | 316 | 0.9 | 1.7 | 0.00 | 0.00 | 0.00 | 84 | 1013.4 |
| 20260906051325 | 81 | 114 | 0.9 | 2.6 | 0.00 | 0.00 | 0.00 | 83 | 1013.4 |
| 20260906050821 | 80 | 127 | 2.6 | 6.1 | 0.00 | 0.00 | 0.00 | 83 | 1013.4 |
| 20260906050316 | 81 | 105 | 1.7 | 1.7 | 0.00 | 0.00 | 0.00 | 83 | 1013.4 |
| 20260906045814 | 80 | 31 | 0.9 | 1.7 | 0.00 | 0.02 | 0.02 | 82 | 1013.3 |
| 20260906045309 | 80 | 302 | 0.9 | 0.9 | 0.00 | 0.02 | 0.02 | 82 | 1013.4 |
| 20260906044805 | 81 | 20 | 0.0 | 0.9 | 0.00 | 0.02 | 0.02 | 81 | 1013.6 |
| 20260906044300 | 81 | 19 | 0.0 | 1.7 | 0.00 | 0.02 | 0.02 | 80 | 1013.4 |
| 20260906043755 | 81 | 35 | 2.6 | 6.1 | 0.00 | 0.02 | 0.02 | 79 | 1013.5 |
| 20260906043252 | 81 | 63 | 1.7 | 1.7 | 0.00 | 0.02 | 0.02 | 85 | 1013.5 |
| 20260906042751 | 82 | 154 | 4.3 | 9.6 | 0.00 | 0.02 | 0.02 | 85 | 1013.7 |
| 20260906042250 | 82 | 0 | 0.0 | 0.0 | 0.00 | 0.02 | 0.02 | 84 | 1012.8 |
| 20260906041746 | 82 | 349 | 0.0 | 0.0 | 0.00 | 0.02 | 0.02 | 85 | 1012.7 |
| 20260906041241 | 82 | 224 | 0.9 | 1.7 | 0.00 | 0.02 | 0.02 | 85 | 1012.7 |
| 20260906040736 | 81 | 21 | 0.9 | 1.7 | 0.00 | 0.02 | 0.02 | 86 | 1012.7 |
| 20260906040231 | 81 | 337 | 0.0 | 0.9 | 0.00 | 0.02 | 0.02 | 87 | 1012.7 |
| 20260906035727 | 81 | 352 | 0.9 | 0.9 | 0.00 | 0.02 | 0.02 | 87 | 1012.9 |
| 20260906035223 | 81 | 25 | 0.9 | 1.7 | 0.00 | 0.02 | 0.02 | 87 | 1012.6 |
| 20260906034722 | 81 | 340 | 0.0 | 0.9 | 0.00 | 0.02 | 0.02 | 86 | 1012.9 |
| 20260906034217 | 81 | 294 | 0.9 | 0.9 | 0.00 | 0.02 | 0.02 | 87 | 1012.9 |
| 20260906033713 | 81 | 3 | 0.0 | 1.7 | 0.00 | 0.02 | 0.02 | 87 | 1012.9 |
| 20260906033213 | 81 | 347 | 0.0 | 0.9 | 0.00 | 0.02 | 0.02 | 87 | 1013.1 |
| 20260906032710 | 81 | 273 | 1.7 | 1.7 | 0.00 | 0.02 | 0.02 | 86 | 1012.9 |
| 20260906032209 | 82 | 340 | 0.0 | 0.0 | 0.00 | 0.02 | 0.02 | 85 | 1013.4 |
| 20260906031705 | 82 | 4 | 0.0 | 0.9 | 0.00 | 0.02 | 0.02 | 84 | 1013.1 |
| 20260906031200 | 80 | 2 | 1.7 | 5.2 | 0.00 | 0.02 | 0.02 | 85 | 1012.9 |
| 20260906030659 | 80 | 359 | 0.9 | 5.2 | 0.00 | 0.02 | 0.02 | 90 | 1012.9 |
| 20260906030155 | 80 | 349 | 1.7 | 1.7 | 0.00 | 0.02 | 0.02 | 92 | 1012.2 |
| 20260906025654 | 79 | 337 | 0.0 | 0.0 | 0.00 | 0.02 | 0.02 | 91 | 1012.3 |
| 20260906025148 | 79 | 357 | 0.0 | 0.9 | 0.00 | 0.02 | 0.02 | 91 | 1012.3 |
| 20260906024642 | 79 | 346 | 0.9 | 0.9 | 0.00 | 0.02 | 0.02 | 91 | 1012.2 |
| 20260906024136 | 80 | 312 | 0.9 | 1.7 | 0.00 | 0.02 | 0.02 | 90 | 1012.2 |
| 20260906023633 | 80 | 358 | 0.9 | 0.9 | 0.00 | 0.02 | 0.02 | 88 | 1011.8 |
| 20260906023132 | 81 | 6 | 0.9 | 0.9 | 0.00 | 0.02 | 0.02 | 85 | 1011.9 |
| 20260906022627 | 80 | 304 | 0.9 | 1.7 | 0.00 | 0.02 | 0.02 | 86 | 1011.6 |
| 20260906022123 | 78 | 331 | 0.0 | 1.7 | 0.00 | 0.02 | 0.02 | 90 | 1011.8 |
| 20260906021619 | 79 | 283 | 1.7 | 2.6 | 0.00 | 0.02 | 0.02 | 92 | 1011.7 |
| 20260906021117 | 80 | 336 | 0.9 | 0.9 | 0.00 | 0.02 | 0.02 | 88 | 1011.6 |
| 20260906020617 | 80 | 337 | 0.0 | 0.9 | 0.00 | 0.02 | 0.02 | 86 | 1011.9 |
| 20260906020112 | 81 | 337 | 0.0 | 0.0 | 0.12 | 0.02 | 0.02 | 85 | 1011.5 |
| 20260906015607 | 83 | 336 | 0.9 | 0.9 | 0.07 | 0.01 | 0.01 | 82 | 1011.7 |
| 20260906015105 | 84 | 15 | 1.7 | 1.7 | 0.00 | 0.00 | 0.00 | 78 | 1011.7 |
| 20260906014600 | 86 | 50 | 0.9 | 1.7 | 0.00 | 0.00 | 0.00 | 71 | 1011.6 |
| 20260906014056 | 86 | 17 | 1.7 | 2.6 | 0.00 | 0.00 | 0.00 | 70 | 1011.4 |
| 20260906013551 | 86 | 17 | 2.6 | 4.3 | 0.00 | 0.00 | 0.00 | 68 | 1011.5 |
| 20260906013047 | 85 | 273 | 0.9 | 2.6 | 0.00 | 0.00 | 0.00 | 69 | 1011.3 |
| 20260906012542 | 85 | 276 | 2.6 | 4.3 | 0.00 | 0.00 | 0.00 | 70 | 1011.2 |
| 20260906012041 | 84 | 256 | 1.7 | 1.7 | 0.00 | 0.00 | 0.00 | 72 | 1011.3 |
| 20260906011538 | 84 | 281 | 0.9 | 1.7 | 0.00 | 0.00 | 0.00 | 72 | 1011.3 |
| 20260906011037 | 84 | 311 | 0.9 | 0.9 | 0.00 | 0.00 | 0.00 | 72 | 1011.5 |
| 20260906010533 | 85 | 338 | 0.0 | 0.0 | 0.00 | 0.00 | 0.00 | 71 | 1011.4 |
| 20260906010029 | 85 | 323 | 0.0 | 0.9 | 0.00 | 0.00 | 0.00 | 71 | 1011.0 |
| 20260906005528 | 85 | 353 | 0.0 | 0.0 | 0.00 | 0.00 | 0.00 | 70 | 1011.0 |
| 20260906005027 | 85 | 322 | 0.9 | 0.9 | 0.00 | 0.00 | 0.00 | 70 | 1011.1 |
| 20260906004526 | 86 | 339 | 0.0 | 0.9 | 0.00 | 0.00 | 0.00 | 70 | 1011.1 |
| 20260906004022 | 86 | 295 | 0.9 | 1.7 | 0.00 | 0.00 | 0.00 | 69 | 1011.1 |
| 20260906003517 | 87 | 30 | 0.9 | 1.7 | 0.00 | 0.00 | 0.00 | 67 | 1011.3 |
| 20260906003013 | 87 | 15 | 0.9 | 0.9 | 0.00 | 0.00 | 0.00 | 67 | 1011.6 |
| 20260906002507 | 87 | 294 | 0.9 | 1.7 | 0.00 | 0.00 | 0.00 | 67 | 1011.6 |
| 20260906002002 | 88 | 58 | 0.9 | 1.7 | 0.00 | 0.00 | 0.00 | 67 | 1011.9 |
| 20260906001458 | 89 | 57 | 0.9 | 4.3 | 0.00 | 0.00 | 0.00 | 67 | 1011.8 |
| 20260906000952 | 89 | 16 | 0.9 | 4.3 | 0.00 | 0.00 | 0.00 | 66 | 1011.5 |
| 20260906000448 | 90 | 307 | 0.9 | 1.7 | 0.00 | 0.00 | 0.00 | 68 | 1011.6 |
| 20260905235941 | 91 | 317 | 2.6 | 6.1 | 0.00 | 0.00 | 0.00 | 66 | 1011.9 |
| 20260905235436 | 92 | 40 | 2.6 | 5.2 | 0.00 | 0.00 | 0.00 | 66 | 1011.7 |
| 20260905234931 | 92 | 79 | 2.6 | 5.2 | 0.00 | 0.00 | 0.00 | 66 | 1011.4 |
| 20260905234427 | 94 | 33 | 0.9 | 7.0 | 0.00 | 0.00 | 0.00 | 66 | 1011.2 |
| 20260905233921 | 95 | 68 | 1.7 | 2.6 | 0.00 | 0.00 | 0.00 | 63 | 1011.4 |
| 20260905233417 | 95 | 353 | 0.0 | 0.0 | 0.00 | 0.00 | 0.00 | 63 | 1011.0 |
| 20260905232915 | 95 | 312 | 0.0 | 0.9 | 0.00 | 0.00 | 0.00 | 63 | 1010.8 |
| 20260905232412 | 95 | 316 | 0.9 | 0.9 | 0.00 | 0.00 | 0.00 | 63 | 1010.8 |
| 20260905231906 | 95 | 347 | 0.0 | 0.9 | 0.00 | 0.00 | 0.00 | 63 | 1010.9 |
| 20260905231402 | 95 | 293 | 0.9 | 1.7 | 0.00 | 0.00 | 0.00 | 64 | 1010.8 |
| 20260905230853 | 95 | 16 | 0.9 | 0.9 | 0.00 | 0.00 | 0.00 | 67 | 1010.6 |
| 20260905230350 | 96 | 266 | 0.9 | 1.7 | 0.00 | 0.00 | 0.00 | 62 | 1010.6 |
| 20260905225850 | 96 | 2 | 0.0 | 0.9 | 0.00 | 0.00 | 0.00 | 63 | 1010.5 |
| 20260905225345 | 96 | 31 | 0.9 | 0.9 | 0.00 | 0.00 | 0.00 | 61 | 1010.6 |
| 20260905224840 | 97 | 315 | 0.0 | 0.9 | 0.00 | 0.00 | 0.00 | 61 | 1010.9 |
| 20260905224335 | 98 | 285 | 0.9 | 1.7 | 0.00 | 0.00 | 0.00 | 59 | 1010.8 |
| 20260905223830 | 99 | 170 | 0.9 | 1.7 | 0.00 | 0.00 | 0.00 | 55 | 1010.9 |
| 20260905223327 | 99 | 314 | 0.9 | 2.6 | 0.00 | 0.00 | 0.00 | 56 | 1010.8 |
| 20260905222817 | 99 | 6 | 0.9 | 1.7 | 0.00 | 0.00 | 0.00 | 54 | 1010.8 |
| 20260905222316 | 99 | 338 | 0.0 | 4.3 | 0.00 | 0.00 | 0.00 | 54 | 1010.8 |
| 20260905221812 | 99 | 43 | 0.9 | 4.3 | 0.00 | 0.00 | 0.00 | 53 | 1010.6 |
| 20260905221309 | 101 | 10 | 2.6 | 2.6 | 0.00 | 0.00 | 0.00 | 51 | 1010.8 |
| 20260905220804 | 102 | 346 | 0.9 | 0.9 | 0.00 | 0.00 | 0.00 | 47 | 1010.6 |
| 20260905220300 | 102 | 323 | 0.9 | 0.9 | 0.00 | 0.00 | 0.00 | 48 | 1010.6 |
| 20260905215759 | 102 | 345 | 0.0 | 0.9 | 0.00 | 0.00 | 0.00 | 49 | 1010.7 |
| 20260905215255 | 102 | 311 | 0.9 | 0.9 | 0.00 | 0.00 | 0.00 | 52 | 1010.7 |
| 20260905214751 | 102 | 297 | 0.9 | 2.6 | 0.00 | 0.00 | 0.00 | 47 | 1010.5 |
| 20260905214247 | 102 | 320 | 0.0 | 1.7 | 0.00 | 0.00 | 0.00 | 49 | 1010.7 |
| 20260905213742 | 101 | 318 | 0.9 | 0.9 | 0.00 | 0.00 | 0.00 | 52 | 1010.7 |
| 20260905213238 | 101 | 295 | 1.7 | 2.6 | 0.00 | 0.00 | 0.00 | 52 | 1010.7 |
| 20260905212733 | 101 | 14 | 0.9 | 0.9 | 0.00 | 0.00 | 0.00 | 49 | 1010.6 |
| 20260905212232 | 102 | 317 | 0.0 | 1.7 | 0.00 | 0.00 | 0.00 | 50 | 1010.9 |
| 20260905211731 | 101 | 303 | 0.9 | 1.7 | 0.00 | 0.00 | 0.00 | 48 | 1010.9 |
| 20260905211227 | 98 | 304 | 0.0 | 1.7 | 0.00 | 0.00 | 0.00 | 53 | 1010.9 |
| 20260905210724 | 100 | 272 | 1.7 | 4.3 | 0.00 | 0.00 | 0.00 | 51 | 1011.2 |
| 20260905210223 | 102 | 287 | 0.9 | 0.9 | 0.00 | 0.00 | 0.00 | 47 | 1010.9 |
| 20260905205722 | 101 | 310 | 0.9 | 4.3 | 0.00 | 0.00 | 0.00 | 48 | 1011.1 |
| 20260905205216 | 101 | 326 | 0.9 | 1.7 | 0.00 | 0.00 | 0.00 | 48 | 1011.2 |
| 20260905204716 | 102 | 344 | 0.9 | 7.0 | 0.00 | 0.00 | 0.00 | 47 | 1011.2 |
| 20260905204212 | 103 | 292 | 0.9 | 2.6 | 0.00 | 0.00 | 0.00 | 45 | 1011.1 |
| 20260905203706 | 103 | 225 | 4.3 | 6.1 | 0.00 | 0.00 | 0.00 | 46 | 1011.2 |
| 20260905203202 | 102 | 319 | 0.0 | 1.7 | 0.00 | 0.00 | 0.00 | 50 | 1011.3 |
| 20260905202657 | 103 | 356 | 1.7 | 2.6 | 0.00 | 0.00 | 0.00 | 46 | 1011.5 |
| 20260905202152 | 103 | 355 | 0.9 | 0.9 | 0.00 | 0.00 | 0.00 | 45 | 1011.4 |
| 20260905201648 | 101 | 321 | 1.7 | 1.7 | 0.00 | 0.00 | 0.00 | 46 | 1011.6 |
| 20260905201147 | 100 | 268 | 1.7 | 2.6 | 0.00 | 0.00 | 0.00 | 49 | 1011.4 |
| 20260905200643 | 100 | 315 | 0.9 | 1.7 | 0.00 | 0.00 | 0.00 | 49 | 1011.7 |
| 20260905200138 | 100 | 320 | 0.0 | 1.7 | 0.00 | 0.00 | 0.00 | 50 | 1011.8 |
| 20260905195636 | 101 | 304 | 0.9 | 4.3 | 0.00 | 0.00 | 0.00 | 50 | 1011.9 |
| 20260905195132 | 102 | 239 | 3.5 | 5.2 | 0.00 | 0.00 | 0.00 | 49 | 1011.9 |
| 20260905194626 | 100 | 317 | 0.0 | 2.6 | 0.00 | 0.00 | 0.00 | 48 | 1012.2 |
| 20260905194126 | 102 | 323 | 0.9 | 5.2 | 0.00 | 0.00 | 0.00 | 50 | 1012.2 |
| 20260905193621 | 102 | 307 | 1.7 | 1.7 | 0.00 | 0.00 | 0.00 | 48 | 1012.1 |
| 20260905193116 | 102 | 336 | 2.6 | 7.0 | 0.00 | 0.00 | 0.00 | 52 | 1012.2 |
| 20260905192612 | 100 | 260 | 2.6 | 5.2 | 0.00 | 0.00 | 0.00 | 51 | 1012.1 |
| 20260905192108 | 99 | 320 | 1.7 | 5.2 | 0.00 | 0.00 | 0.00 | 53 | 1012.1 |
| 20260905191606 | 100 | 213 | 2.6 | 2.6 | 0.00 | 0.00 | 0.00 | 53 | 1012.3 |
| 20260905191105 | 100 | 237 | 0.9 | 1.7 | 0.00 | 0.00 | 0.00 | 52 | 1012.4 |
| 20260905190604 | 100 | 267 | 2.6 | 4.3 | 0.00 | 0.00 | 0.00 | 53 | 1012.6 |
| 20260905185602 | 98 | 345 | 1.7 | 2.6 | 0.00 | 0.00 | 0.00 | 53 | 1012.6 |
| 20260905185056 | 98 | 202 | 3.5 | 5.2 | 0.00 | 0.00 | 0.00 | 53 | 1012.5 |
| 20260905184551 | 100 | 291 | 4.3 | 4.3 | 0.00 | 0.00 | 0.00 | 51 | 1012.7 |
| 20260905184049 | 101 | 251 | 0.9 | 5.2 | 0.00 | 0.00 | 0.00 | 54 | 1012.8 |
| 20260905183544 | 100 | 147 | 2.6 | 5.2 | 0.00 | 0.00 | 0.00 | 56 | 1012.7 |
| 20260905183039 | 99 | 267 | 2.6 | 5.2 | 0.00 | 0.00 | 0.00 | 61 | 1013.1 |
| 20260905182538 | 98 | 265 | 3.5 | 4.3 | 0.00 | 0.00 | 0.00 | 57 | 1013.1 |
| 20260905182033 | 98 | 297 | 2.6 | 7.0 | 0.00 | 0.00 | 0.00 | 58 | 1013.3 |
| 20260905181528 | 99 | 271 | 2.6 | 6.1 | 0.00 | 0.00 | 0.00 | 57 | 1013.4 |
| 20260905181027 | 98 | 285 | 1.7 | 2.6 | 0.00 | 0.00 | 0.00 | 58 | 1013.4 |
| 20260905180521 | 99 | 268 | 2.6 | 4.3 | 0.00 | 0.00 | 0.00 | 57 | 1013.2 |
| 20260905180012 | 99 | 261 | 4.3 | 6.1 | 0.00 | 0.00 | 0.00 | 56 | 1013.5 |
| 20260905175511 | 98 | 263 | 3.5 | 6.1 | 0.00 | 0.00 | 0.00 | 58 | 1013.5 |
| 20260905175007 | 98 | 255 | 2.6 | 4.3 | 0.00 | 0.00 | 0.00 | 59 | 1013.5 |
| 20260905174502 | 99 | 283 | 0.9 | 1.7 | 0.00 | 0.00 | 0.00 | 57 | 1013.6 |
| 20260905173957 | 99 | 344 | 0.0 | 0.9 | 0.00 | 0.00 | 0.00 | 58 | 1013.6 |
| 20260905173453 | 97 | 323 | 0.9 | 2.6 | 0.00 | 0.00 | 0.00 | 61 | 1013.6 |
| 20260905172949 | 98 | 257 | 2.6 | 4.3 | 0.00 | 0.00 | 0.00 | 62 | 1013.9 |
| 20260905172447 | 97 | 295 | 1.7 | 4.3 | 0.00 | 0.00 | 0.00 | 62 | 1014.0 |
| 20260905171943 | 98 | 352 | 0.0 | 1.7 | 0.00 | 0.00 | 0.00 | 59 | 1014.0 |
| 20260905171439 | 97 | 21 | 0.9 | 1.7 | 0.00 | 0.00 | 0.00 | 60 | 1013.9 |
| 20260905170935 | 95 | 315 | 0.0 | 1.7 | 0.00 | 0.00 | 0.00 | 63 | 1014.0 |
| 20260905170431 | 95 | 258 | 4.3 | 5.2 | 0.00 | 0.00 | 0.00 | 67 | 1014.1 |
| 20260905165931 | 95 | 248 | 2.6 | 5.2 | 0.00 | 0.00 | 0.00 | 65 | 1014.1 |
| 20260905165426 | 96 | 303 | 0.9 | 4.3 | 0.00 | 0.00 | 0.00 | 63 | 1014.1 |
| 20260905164920 | 96 | 311 | 0.9 | 2.6 | 0.00 | 0.00 | 0.00 | 64 | 1014.3 |
| 20260905164414 | 95 | 275 | 0.9 | 2.6 | 0.00 | 0.00 | 0.00 | 64 | 1014.1 |
| 20260905163910 | 95 | 254 | 1.7 | 1.7 | 0.00 | 0.00 | 0.00 | 66 | 1014.5 |
| 20260905163407 | 93 | 309 | 0.9 | 4.3 | 0.00 | 0.00 | 0.00 | 69 | 1014.5 |
| 20260905162902 | 93 | 270 | 1.7 | 2.6 | 0.00 | 0.00 | 0.00 | 68 | 1014.6 |
| 20260905162356 | 93 | 297 | 0.9 | 1.7 | 0.00 | 0.00 | 0.00 | 69 | 1014.6 |
| 20260905161851 | 92 | 249 | 4.3 | 5.2 | 0.00 | 0.00 | 0.00 | 69 | 1014.7 |
| 20260905161350 | 92 | 327 | 0.0 | 0.0 | 0.00 | 0.00 | 0.00 | 69 | 1014.6 |
| 20260905160849 | 93 | 344 | 0.0 | 2.6 | 0.00 | 0.00 | 0.00 | 69 | 1014.9 |
| 20260905160343 | 93 | 292 | 2.6 | 2.6 | 0.00 | 0.00 | 0.00 | 68 | 1014.8 |
| 20260905155837 | 91 | 4 | 0.9 | 0.9 | 0.00 | 0.00 | 0.00 | 70 | 1014.9 |
| 20260905155336 | 90 | 293 | 1.7 | 2.6 | 0.00 | 0.00 | 0.00 | 74 | 1015.1 |
| 20260905154831 | 91 | 277 | 1.7 | 4.3 | 0.00 | 0.00 | 0.00 | 73 | 1015.0 |
| 20260905154326 | 90 | 324 | 0.9 | 2.6 | 0.00 | 0.00 | 0.00 | 74 | 1015.1 |
| 20260905153822 | 89 | 110 | 0.9 | 1.7 | 0.00 | 0.00 | 0.00 | 77 | 1015.1 |
| 20260905153318 | 87 | 223 | 1.7 | 1.7 | 0.00 | 0.00 | 0.00 | 80 | 1015.2 |
| 20260905152818 | 87 | 278 | 2.6 | 2.6 | 0.00 | 0.00 | 0.00 | 81 | 1015.3 |
| 20260905152317 | 87 | 282 | 0.0 | 1.7 | 0.00 | 0.00 | 0.00 | 81 | 1015.2 |
| 20260905151812 | 86 | 315 | 0.9 | 1.7 | 0.00 | 0.00 | 0.00 | 83 | 1015.1 |
| 20260905151307 | 86 | 316 | 0.9 | 0.9 | 0.00 | 0.00 | 0.00 | 86 | 1015.1 |
| 20260905150802 | 85 | 309 | 0.9 | 0.9 | 0.00 | 0.00 | 0.00 | 87 | 1015.3 |
| 20260905150302 | 84 | 304 | 0.9 | 1.7 | 0.00 | 0.00 | 0.00 | 89 | 1015.1 |
| 20260905145759 | 84 | 345 | 0.0 | 1.7 | 0.00 | 0.00 | 0.00 | 89 | 1015.1 |
| 20260905145254 | 84 | 342 | 0.0 | 0.9 | 0.00 | 0.00 | 0.00 | 90 | 1015.3 |
| 20260905144752 | 84 | 291 | 1.7 | 1.7 | 0.00 | 0.00 | 0.00 | 89 | 1015.2 |
| 20260905144248 | 84 | 328 | 0.0 | 0.9 | 0.00 | 0.00 | 0.00 | 90 | 1015.2 |
| 20260905143746 | 84 | 338 | 0.0 | 0.0 | 0.00 | 0.00 | 0.00 | 90 | 1015.1 |
| 20260905143241 | 84 | 339 | 0.9 | 0.9 | 0.00 | 0.00 | 0.00 | 90 | 1015.2 |
| 20260905142740 | 84 | 325 | 0.0 | 1.7 | 0.00 | 0.00 | 0.00 | 91 | 1015.5 |
| 20260905142234 | 84 | 312 | 0.9 | 1.7 | 0.00 | 0.00 | 0.00 | 91 | 1015.5 |
| 20260905141730 | 83 | 328 | 0.0 | 0.9 | 0.00 | 0.00 | 0.00 | 91 | 1015.4 |
| 20260905141225 | 83 | 325 | 0.0 | 0.9 | 0.00 | 0.00 | 0.00 | 91 | 1015.2 |
| 20260905140721 | 83 | 334 | 0.0 | 0.9 | 0.00 | 0.00 | 0.00 | 92 | 1015.4 |
| 20260905140215 | 82 | 345 | 0.0 | 0.0 | 0.00 | 0.00 | 0.00 | 92 | 1015.3 |
| 20260905135709 | 82 | 347 | 0.0 | 0.0 | 0.00 | 0.00 | 0.00 | 92 | 1015.3 |
| 20260905135206 | 82 | 333 | 0.0 | 0.0 | 0.00 | 0.00 | 0.00 | 92 | 1015.4 |
| 20260905134704 | 82 | 333 | 0.0 | 0.0 | 0.00 | 0.00 | 0.00 | 93 | 1015.2 |
| 20260905134204 | 82 | 333 | 0.0 | 0.0 | 0.00 | 0.00 | 0.00 | 93 | 1015.2 |
| 20260905133659 | 81 | 334 | 0.0 | 0.0 | 0.00 | 0.00 | 0.00 | 93 | 1015.3 |
| 20260905133154 | 81 | 330 | 0.0 | 0.0 | 0.00 | 0.00 | 0.00 | 93 | 1015.4 |
| 20260905132653 | 81 | 330 | 0.0 | 0.0 | 0.00 | 0.00 | 0.00 | 93 | 1015.4 |
| 20260905132149 | 81 | 330 | 0.0 | 0.0 | 0.00 | 0.00 | 0.00 | 94 | 1015.3 |
| 20260905131644 | 81 | 328 | 0.0 | 0.0 | 0.00 | 0.00 | 0.00 | 94 | 1015.4 |
| 20260905131138 | 80 | 330 | 0.0 | 0.0 | 0.00 | 0.00 | 0.00 | 95 | 1015.5 |
| 20260905130632 | 80 | 329 | 0.0 | 0.9 | 0.00 | 0.00 | 0.00 | 95 | 1015.4 |
| 20260905130126 | 80 | 341 | 0.0 | 0.0 | 0.00 | 0.00 | 0.00 | 96 | 1015.5 |
| 20260905125621 | 80 | 340 | 0.0 | 0.0 | 0.00 | 0.00 | 0.00 | 97 | 1015.4 |
| 20260905125117 | 79 | 335 | 0.0 | 0.0 | 0.00 | 0.00 | 0.00 | 98 | 1015.4 |
| 20260905124613 | 79 | 335 | 0.0 | 0.0 | 0.00 | 0.00 | 0.00 | 98 | 1015.4 |
| 20260905124108 | 79 | 335 | 0.0 | 0.0 | 0.00 | 0.00 | 0.00 | 99 | 1015.3 |
| 20260905123558 | 79 | 335 | 0.0 | 0.0 | 0.00 | 0.00 | 0.00 | 99 | 1015.4 |